Flight Information

DEPARTURE
OXNARD, CA
Elevation:
44
Runways:
7/25 - 5953x100 - ASPH-F
Active PE Departure:
25
Current PE ATIS:
Y
Altimeter:
29.76
Remarks:
ATIS:
118.05 805-985-1758
Ground:
121.9
Tower:
134.95
DESTINATION
,
Elevation:
TPA:
1000 (est.)


6827.9 NM73° True-14° Var58° HDG

Flight Plan:
(click to file on line)

1. Type
2. Aircraft Identification
3. Aircraft Type / Special Equipment
4. True Airspeed
kts
5. Departure Airport
(ICAO code)
6. Arriving Airport
(ICAO code)
7. Cruising Altitude
ft
8. Alternate Airport
(ICAO code)
9. Route of Flight
10. Remarks


00:00:00 Departure ATIS: Destination ATIS:

Clearance Limit:
Route:
Altitude: Expect in minutes
Frequency:
Transponder: (7500 Hijack / 7600 Lost Comms / 7700 Emergency)


KOXR 190251Z 28007KT 10SM CLR 14/10 A2976 RMK AO2 SLP076 T01440100 50000
Time: 2021-01-19T02:51:00Z
1611024975
Winds: 280 @ 7 kts
Visibility: 10.0 sm
Clouds (AGL): CLR
Temperature: 14.4 C
Dew Point: 10.0 C
Pressure: 29.760826 in Hgbr


Notes:

Data extracted from FAA Digital Chart Supplement. Effective: 0901Z Thursday, Dec 31, 2020 to 0901Z Thursday, Jan 28, 2021
Current ATIS data is provided courtisy of PilotEdge.